Canadian, TX

4:23 PM CST on December 07, 2019 (GMT -0600)
Hemphill County

Weather History for KHHF - October, 2019

Change the Weather History Date:

Saturday, October 26, 2019

  Actual Average (KPPA) Record (KPPA)
Temperature  
Mean Temperature 47 °F -  
Max Temperature 71 °F 68 °F 89 °F (2014)
Min Temperature 23 °F 42 °F 24 °F (1975)
Degree Days  
Heating Degree Days 18    
Moisture  
Dew Point 31 °F    
Average Humidity 65    
Maximum Humidity 95    
Minimum Humidity 23    
Precipitation  
Precipitation 0.00 in - - ()
Sea Level Pressure  
Sea Level Pressure 29.87 in    
Wind  
Wind Speed 2 mph ()    
Max Wind Speed 13 mph    
Max Gust Speed 16 mph    
Visibility 10.0 miles    
Events      
Averages and records for this station are not official NWS values.
T = Trace of Precipitation, MM = Missing Value Source: Averaged Metar Reports

Daily Weather History Graph

Daily Weather History Graph

Search for Another Location

Airport or City:

Astronomy

Oct. 26, 2019 Rise Set
Actual Time 7:58 AM CDT 6:52 PM CDT
Civil Twilight 7:31 AM CDT 7:18 PM CDT
Nautical Twilight 7:01 AM CDT 7:48 PM CDT
Astronomical Twilight 6:32 AM CDT 8:18 PM CDT
Moon 6:01 AM CDT (10/26) 6:24 PM CDT (10/26)
Length of Visible Light 11h 46m
Length of Day
10h 54m
Waning Crescent, 3% of the Moon is Illuminated
Oct 26
Waning Crescent
Oct 27
New
Nov 4
First Quarter
Nov 12
Full
Nov 19
Last Quarter

Hourly Weather History & Observations

Time (CDT) Temp. Windchill Dew Point Humidity Pressure Visibility Wind Dir Wind Speed Gust Speed Precip Events Conditions
12:15 AM 30.2 °F 26.7 °F 28.4 °F 93% 30.13 in 10.0 mi SSW 3.5 mph - N/A   Clear
12:35 AM 29.1 °F - 27.5 °F 94% 30.12 in 10.0 mi Calm Calm - N/A   Clear
12:55 AM 29.7 °F - 27.9 °F 93% 30.11 in 10.0 mi Calm Calm - N/A   Clear
1:15 AM 29.1 °F - 27.5 °F 94% 30.10 in 10.0 mi Calm Calm - N/A   Clear
1:35 AM 29.8 °F 26.3 °F 27.9 °F 92% 30.09 in 10.0 mi South 3.5 mph - N/A   Clear
1:55 AM 27.9 °F - 26.4 °F 94% 30.09 in 10.0 mi Calm Calm - N/A   Clear
2:15 AM 28.6 °F - 27.3 °F 95% 30.08 in 10.0 mi Calm Calm - N/A   Clear
2:35 AM 28.8 °F - 27.5 °F 95% 30.06 in 10.0 mi Calm Calm - N/A   Clear
2:55 AM 28.0 °F - 26.8 °F 95% 30.06 in 10.0 mi Calm Calm - N/A   Clear
3:15 AM 29.7 °F - 27.9 °F 93% 30.05 in 10.0 mi Calm Calm - N/A   Clear
3:35 AM 28.4 °F - 26.6 °F 93% 30.05 in 10.0 mi Calm Calm - N/A   Clear
3:55 AM 26.8 °F - 25.2 °F 94% 30.03 in 10.0 mi Calm Calm - N/A   Clear
4:15 AM 26.4 °F - 25.2 °F 95% 30.02 in 10.0 mi Calm Calm - N/A   Clear
4:35 AM 27.5 °F - 26.2 °F 95% 30.01 in 10.0 mi Calm Calm - N/A   Clear
4:55 AM 27.1 °F - 25.9 °F 95% 30.00 in 10.0 mi Calm Calm - N/A   Clear
5:15 AM 26.4 °F - 25.0 °F 94% 29.99 in 10.0 mi Calm Calm - N/A   Clear
5:35 AM 26.6 °F - 25.3 °F 95% 29.98 in 10.0 mi Calm Calm - N/A   Clear
5:55 AM 27.3 °F - 25.9 °F 94% 29.97 in 10.0 mi Calm Calm - N/A   Clear
6:15 AM 26.4 °F - 24.8 °F 94% 29.97 in 10.0 mi Calm Calm - N/A   Clear
6:35 AM 27.3 °F - 25.9 °F 94% 29.96 in 10.0 mi Calm Calm - N/A   Clear
6:55 AM 26.4 °F - 24.4 °F 92% 29.95 in 10.0 mi Calm Calm - N/A   Clear
7:15 AM 26.6 °F - 25.0 °F 94% 29.95 in 10.0 mi Calm Calm - N/A   Clear
7:35 AM 25.0 °F - 23.0 °F 92% 29.95 in 10.0 mi Calm Calm - N/A   Clear
7:55 AM 23.9 °F 19.5 °F 22.3 °F 94% 29.94 in 10.0 mi WSW 3.5 mph - N/A   Clear
8:35 AM 25.7 °F - 24.3 °F 94% 29.93 in 10.0 mi Calm Calm - N/A   Clear
8:55 AM 26.4 °F - 25.2 °F 95% 29.93 in 10.0 mi Calm Calm - N/A   Clear
9:15 AM 28.6 °F - 27.0 °F 94% 29.92 in 10.0 mi Calm Calm - N/A   Clear
9:35 AM 31.3 °F - 28.2 °F 88% 29.92 in 10.0 mi Calm Calm - N/A   Clear
9:55 AM 33.6 °F - 30.6 °F 89% 29.92 in 10.0 mi Calm Calm - N/A   Clear
10:15 AM 36.9 °F - 30.2 °F 77% 29.91 in 10.0 mi Calm Calm - N/A   Clear
10:35 AM 39.2 °F - 31.5 °F 74% 29.90 in 10.0 mi Calm Calm - N/A   Clear
10:55 AM 41.2 °F - 32.4 °F 71% 29.89 in 10.0 mi Calm Calm - N/A   Clear
11:15 AM 43.7 °F - 32.5 °F 65% 29.88 in 10.0 mi Calm Calm - N/A   Clear
11:35 AM 46.0 °F - 31.3 °F 56% 29.88 in 10.0 mi Calm Calm - N/A   Clear
11:55 AM 49.1 °F - 31.8 °F 51% 29.87 in 10.0 mi Calm Calm - N/A   Clear
12:15 PM 51.3 °F - 32.0 °F 48% 29.87 in 10.0 mi WSW 3.5 mph - N/A   Clear
12:35 PM 53.2 °F - 32.4 °F 45% 29.85 in 10.0 mi SW 3.5 mph - N/A   Clear
12:55 PM 54.9 °F - 33.3 °F 44% 29.83 in 10.0 mi South 4.6 mph - N/A   Clear
1:15 PM 56.8 °F - 32.5 °F 40% 29.81 in 10.0 mi SW 3.5 mph - N/A   Clear
1:35 PM 58.8 °F - 33.1 °F 38% 29.80 in 10.0 mi Calm Calm - N/A   Clear
1:55 PM 61.9 °F - 32.0 °F 33% 29.79 in 10.0 mi SSW 3.5 mph - N/A   Clear
2:15 PM 63.9 °F - 32.9 °F 31% 29.77 in 10.0 mi SSW 5.8 mph - N/A   Clear
2:35 PM 65.3 °F - 33.1 °F 30% 29.76 in 10.0 mi SW 4.6 mph - N/A   Clear
2:55 PM 66.9 °F - 33.6 °F 29% 29.75 in 10.0 mi SW 6.9 mph - N/A   Clear
3:15 PM 68.7 °F - 33.1 °F 27% 29.74 in 10.0 mi South 10.4 mph - N/A   Clear
3:35 PM 70.3 °F - 33.8 °F 26% 29.73 in 10.0 mi South 11.5 mph - N/A   Clear
3:55 PM 70.5 °F - 33.3 °F 25% 29.73 in 10.0 mi SSW 11.5 mph - N/A   Clear
4:15 PM 71.1 °F - 31.8 °F 23% 29.72 in 10.0 mi SSW 12.7 mph - N/A   Clear
4:35 PM 71.2 °F - 32.4 °F 24% 29.72 in 10.0 mi SSW 12.7 mph 16.1 mph N/A   Clear
4:55 PM 71.1 °F - 32.2 °F 24% 29.72 in 10.0 mi SSW 12.7 mph - N/A   Clear
5:15 PM 70.9 °F - 32.9 °F 25% 29.72 in 10.0 mi South 11.5 mph - N/A   Clear
5:35 PM 70.0 °F - 32.5 °F 25% 29.72 in 10.0 mi SSW 10.4 mph - N/A   Clear
5:55 PM 68.9 °F - 34.5 °F 28% 29.72 in 10.0 mi South 8.1 mph - N/A   Clear
6:15 PM 66.9 °F - 35.6 °F 31% 29.72 in 10.0 mi South 6.9 mph - N/A   Clear
6:35 PM 63.5 °F - 36.5 °F 37% 29.72 in 10.0 mi South 4.6 mph - N/A   Clear
6:55 PM 59.5 °F - 37.6 °F 44% 29.72 in 10.0 mi Calm Calm - N/A   Clear
7:15 PM 56.3 °F - 38.3 °F 51% 29.72 in 10.0 mi Calm Calm - N/A   Clear
7:35 PM 54.3 °F - 37.0 °F 52% 29.72 in 10.0 mi Calm Calm - N/A   Clear
7:55 PM 52.5 °F - 37.0 °F 56% 29.72 in 10.0 mi Calm Calm - N/A   Clear
8:15 PM 51.8 °F - 36.9 °F 57% 29.73 in 10.0 mi Calm Calm - N/A   Clear
8:35 PM 50.2 °F - 37.2 °F 61% 29.73 in 10.0 mi Calm Calm - N/A   Clear
8:55 PM 50.9 °F - 37.2 °F 59% 29.73 in 10.0 mi Calm Calm - N/A   Clear
9:35 PM 53.1 °F - 34.9 °F 50% 29.73 in 10.0 mi Calm Calm - N/A   Clear
9:55 PM 47.7 °F - 35.8 °F 63% 29.73 in 10.0 mi Calm Calm - N/A   Clear
10:15 PM 52.3 °F - 34.3 °F 50% 29.73 in 10.0 mi SSW 4.6 mph - N/A   Clear
10:35 PM 52.9 °F - 33.8 °F 48% 29.73 in 10.0 mi South 5.8 mph - N/A   Clear
10:55 PM 53.4 °F - 33.3 °F 46% 29.72 in 10.0 mi Calm Calm - N/A   Clear
11:15 PM 53.2 °F - 32.0 °F 44% 29.72 in 10.0 mi SW 3.5 mph - N/A   Clear
11:35 PM 51.6 °F - 32.2 °F 47% 29.72 in 10.0 mi Calm Calm - N/A   Clear
11:55 PM 51.8 °F - 32.0 °F 47% 29.71 in 10.0 mi Calm Calm - N/A   Clear